Total_Precipitation_Accumulation
0.08 0.15 0.33 0.32 0.33 0.31 0.31 0.27 0.27 0.29 0.37 0.45 0.43 0.38 0.37 0.37 0.35 0.30 0.35 0.37 0.40 0.44 0.42 0.42 0.45 0.47 0.50 0.51 0.41 0.24 0.17 0.15 0.12 0.10 0.12 0.14 0.16 0.17 0.14 0.15 0.18 0.21 0.24
0.07 0.13 0.30 0.31 0.35 0.37 0.35 0.30 0.27 0.30 0.36 0.44 0.48 0.46 0.46 0.45 0.42 0.37 0.36 0.39 0.40 0.42 0.43 0.41 0.36 0.30 0.27 0.26 0.20 0.16 0.13 0.09 0.06 0.04 0.03 0.05 0.09 0.12 0.11 0.11 0.14 0.22 0.26
0.08 0.15 0.27 0.32 0.37 0.38 0.36 0.31 0.28 0.31 0.38 0.43 0.49 0.54 0.51 0.49 0.47 0.45 0.46 0.42 0.45 0.42 0.45 0.38 0.29 0.22 0.19 0.16 0.13 0.12 0.11 0.07 0.05 0.04 0.04 0.06 0.09 0.13 0.14 0.15 0.18 0.25 0.29
0.10 0.16 0.26 0.35 0.39 0.41 0.39 0.37 0.32 0.33 0.39 0.43 0.49 0.54 0.53 0.53 0.55 0.51 0.48 0.43 0.44 0.40 0.40 0.32 0.23 0.18 0.15 0.12 0.12 0.10 0.09 0.08 0.06 0.04 0.06 0.08 0.12 0.21 0.24 0.26 0.30 0.30 0.30
0.17 0.21 0.36 0.44 0.46 0.45 0.44 0.44 0.40 0.38 0.42 0.46 0.53 0.59 0.59 0.62 0.62 0.55 0.46 0.40 0.36 0.32 0.33 0.28 0.19 0.15 0.11 0.09 0.09 0.08 0.09 0.07 0.04 0.03 0.04 0.08 0.15 0.25 0.27 0.29 0.33 0.34 0.30
0.28 0.35 0.48 0.57 0.61 0.56 0.51 0.49 0.48 0.47 0.45 0.48 0.54 0.59 0.60 0.62 0.65 0.58 0.48 0.36 0.29 0.26 0.27 0.24 0.18 0.15 0.12 0.10 0.09 0.09 0.09 0.07 0.04 0.03 0.05 0.09 0.15 0.24 0.24 0.26 0.30 0.35 0.38
0.47 0.56 0.63 0.71 0.75 0.71 0.64 0.58 0.53 0.52 0.50 0.51 0.57 0.59 0.63 0.63 0.63 0.63 0.53 0.35 0.26 0.25 0.27 0.24 0.20 0.18 0.16 0.13 0.12 0.12 0.10 0.06 0.04 0.03 0.06 0.10 0.16 0.25 0.27 0.29 0.31 0.33 0.38
0.73 0.84 0.86 0.93 0.87 0.82 0.73 0.69 0.63 0.62 0.58 0.58 0.64 0.64 0.67 0.68 0.66 0.65 0.56 0.41 0.30 0.27 0.27 0.26 0.22 0.20 0.20 0.16 0.14 0.13 0.11 0.06 0.03 0.03 0.05 0.09 0.16 0.25 0.30 0.30 0.30 0.29 0.31
1.12 1.22 1.13 1.10 0.96 0.93 0.85 0.74 0.71 0.69 0.68 0.67 0.68 0.65 0.66 0.67 0.67 0.64 0.55 0.43 0.37 0.34 0.33 0.31 0.26 0.23 0.21 0.19 0.16 0.13 0.09 0.06 0.03 0.03 0.04 0.07 0.15 0.25 0.29 0.32 0.35 0.32 0.32
1.48 1.62 1.55 1.37 1.20 1.07 0.99 0.83 0.76 0.75 0.73 0.67 0.60 0.51 0.50 0.57 0.63 0.58 0.46 0.39 0.36 0.35 0.34 0.33 0.30 0.26 0.22 0.19 0.16 0.12 0.08 0.06 0.05 0.04 0.06 0.10 0.17 0.27 0.32 0.36 0.38 0.36 0.35
1.79 1.88 1.94 1.76 1.48 1.27 1.11 0.92 0.87 0.83 0.77 0.69 0.55 0.44 0.43 0.48 0.53 0.46 0.34 0.31 0.34 0.36 0.34 0.31 0.29 0.28 0.22 0.16 0.13 0.11 0.10 0.07 0.06 0.06 0.07 0.13 0.25 0.33 0.33 0.32 0.32 0.32 0.34
1.84 1.93 2.08 1.96 1.78 1.57 1.31 1.06 1.03 0.97 0.80 0.68 0.54 0.49 0.46 0.45 0.49 0.42 0.36 0.32 0.34 0.34 0.32 0.35 0.34 0.31 0.26 0.18 0.16 0.14 0.12 0.09 0.08 0.07 0.09 0.16 0.28 0.35 0.32 0.29 0.29 0.29 0.32
1.94 2.10 2.21 2.21 1.96 1.83 1.64 1.28 1.06 1.02 0.95 0.82 0.65 0.58 0.56 0.56 0.55 0.54 0.46 0.41 0.37 0.31 0.28 0.29 0.32 0.28 0.23 0.20 0.19 0.17 0.15 0.14 0.12 0.10 0.11 0.13 0.19 0.30 0.35 0.32 0.30 0.30 0.30
2.08 2.14 2.25 2.40 2.22 1.94 1.77 1.57 1.33 1.13 1.04 0.96 0.81 0.69 0.69 0.66 0.56 0.50 0.46 0.41 0.42 0.36 0.31 0.28 0.25 0.24 0.23 0.20 0.20 0.19 0.18 0.16 0.14 0.13 0.13 0.14 0.16 0.22 0.31 0.36 0.36 0.35 0.36
2.09 2.21 2.29 2.38 2.40 2.17 1.96 1.75 1.56 1.37 1.20 1.20 1.12 0.95 0.82 0.75 0.64 0.54 0.49 0.49 0.50 0.47 0.42 0.37 0.32 0.28 0.27 0.25 0.22 0.20 0.20 0.21 0.19 0.16 0.14 0.14 0.14 0.16 0.24 0.34 0.43 0.48 0.50
1.98 2.17 2.29 2.37 2.48 2.44 2.14 1.95 1.76 1.51 1.33 1.34 1.30 1.16 1.08 0.98 0.91 0.80 0.68 0.60 0.57 0.55 0.54 0.49 0.44 0.40 0.35 0.32 0.27 0.24 0.22 0.23 0.24 0.22 0.20 0.18 0.15 0.15 0.18 0.29 0.42 0.52 0.57
1.93 2.15 2.16 2.26 2.45 2.52 2.38 2.18 1.95 1.78 1.51 1.41 1.34 1.25 1.24 1.15 1.08 1.02 0.92 0.85 0.78 0.73 0.69 0.66 0.62 0.57 0.48 0.42 0.36 0.32 0.30 0.29 0.29 0.29 0.27 0.25 0.21 0.18 0.19 0.25 0.36 0.47 0.53
1.98 2.16 2.20 2.21 2.38 2.44 2.46 2.45 2.29 2.12 1.89 1.63 1.50 1.43 1.35 1.30 1.23 1.15 1.06 0.92 0.83 0.87 0.87 0.81 0.73 0.67 0.55 0.45 0.38 0.34 0.32 0.32 0.32 0.33 0.35 0.34 0.31 0.26 0.22 0.22 0.26 0.35 0.43
1.94 2.11 2.27 2.25 2.39 2.49 2.49 2.51 2.49 2.30 2.18 2.00 1.69 1.48 1.41 1.41 1.38 1.33 1.21 1.12 1.05 0.93 0.90 0.90 0.82 0.71 0.63 0.55 0.47 0.39 0.33 0.30 0.30 0.30 0.29 0.30 0.33 0.32 0.29 0.27 0.26 0.28 0.35
1.88 2.03 2.20 2.26 2.37 2.63 2.71 2.67 2.64 2.39 2.16 2.14 1.94 1.67 1.51 1.49 1.52 1.46 1.33 1.27 1.28 1.18 1.03 0.91 0.85 0.80 0.70 0.67 0.64 0.55 0.47 0.41 0.37 0.33 0.30 0.29 0.28 0.29 0.28 0.25 0.24 0.25 0.28
1.80 1.96 2.08 2.18 2.25 2.48 2.64 2.62 2.55 2.39 2.16 2.04 2.01 1.88 1.75 1.65 1.66 1.64 1.50 1.40 1.35 1.27 1.16 1.07 0.98 0.93 0.89 0.85 0.83 0.71 0.58 0.53 0.50 0.45 0.41 0.39 0.36 0.34 0.32 0.30 0.27 0.25 0.23
1.53 1.77 1.98 2.07 2.18 2.20 2.28 2.48 2.63 2.70 2.50 2.20 2.04 1.96 1.84 1.75 1.72 1.67 1.63 1.56 1.48 1.42 1.39 1.34 1.28 1.18 1.11 1.11 1.10 1.05 0.87 0.69 0.53 0.47 0.48 0.46 0.42 0.40 0.37 0.34 0.31 0.28 0.25
1.32 1.56 1.86 2.01 2.12 2.13 2.17 2.42 2.64 2.79 2.63 2.33 1.99 1.83 1.84 1.86 1.84 1.74 1.71 1.72 1.62 1.53 1.45 1.41 1.37 1.31 1.24 1.22 1.24 1.28 1.12 0.84 0.60 0.48 0.43 0.43 0.43 0.43 0.42 0.42 0.43 0.40 0.35
1.18 1.36 1.53 1.72 1.89 2.07 2.13 2.18 2.24 2.35 2.34 2.13 2.02 1.93 1.94 1.93 1.92 1.86 1.80 1.79 1.74 1.65 1.51 1.45 1.40 1.31 1.27 1.23 1.23 1.17 1.07 0.89 0.81 0.66 0.48 0.44 0.45 0.45 0.44 0.45 0.47 0.49 0.49
1.05 1.29 1.42 1.50 1.68 1.88 2.03 2.10 2.21 2.17 2.19 2.26 2.21 2.14 2.05 1.99 1.93 1.85 1.80 1.79 1.71 1.64 1.60 1.61 1.54 1.48 1.37 1.28 1.23 1.20 1.17 1.02 0.86 0.82 0.65 0.50 0.50 0.50 0.51 0.52 0.52 0.51 0.52
0.93 1.14 1.35 1.38 1.47 1.59 1.80 2.03 2.11 2.02 2.03 2.07 2.05 2.01 2.01 2.00 1.97 1.87 1.75 1.70 1.67 1.64 1.61 1.63 1.67 1.60 1.53 1.45 1.36 1.28 1.28 1.21 1.04 0.98 0.89 0.67 0.59 0.54 0.52 0.54 0.54 0.53 0.53